Regional Weather Roundup
Issued by NWS

Home | Current Version | Previous Version | Text Only | Print | Product List | Glossary On
Versions: 1 2 3 4 5 6 7 8 9 10 11 12 13 14 15 16 17 18 19 20 21 22 23 24 25 26 27 28 29 30 31 32 33 34 35 36 37 38 39 40 41 42 43 44 45 46
000
ASUS45 KBOI 030710
RWRID

IDAHO REGIONAL WEATHER ROUNDUP
NATIONAL WEATHER SERVICE BOISE ID
100 AM MDT THU SEP 03 2015

NOTE: "FAIR" INDICATES FEW OR NO CLOUDS BELOW 12000 FEET
WITH NO SIGNIFICANT WEATHER AND/OR OBSTRUCTIONS TO VISIBILITY

IDZ012-014-030800-
SOUTHWEST IDAHO


CITY           SKY/WX    TMP DP  RH WIND       PRES   REMARKS
BOISE          MOCLDY    64  42  44 W14       29.75R
CALDWELL       MOCLDY    63  37  39 W15       29.79R
MOUNTAIN HOME  CLEAR     63  41  44 NW13      29.76R
$$

IDZ016-017-030800-
SOUTHCENTRAL IDAHO


CITY           SKY/WX    TMP DP  RH WIND       PRES   REMARKS
BURLEY         PTCLDY    57  43  59 W12       29.78R
JEROME         MOCLDY    65  41  41 SW7       29.79R
TWIN FALLS     PTCLDY    65  34  31 S12       29.80R
$$

IDZ019>023-030800-
SOUTHEAST IDAHO


CITY           SKY/WX    TMP DP  RH WIND       PRES   REMARKS
IDAHO FALLS    PTCLDY    57  46  66 N5        29.83S
POCATELLO      CLEAR     65  43  44 SE8       29.80S
REXBURG        PTCLDY    59  43  55 CALM      29.84F
$$

IDZ006-010-011-018-031-032-030800-
CENTRAL IDAHO MOUNTAINS


CITY           SKY/WX    TMP DP  RH WIND       PRES   REMARKS
MCCALL         CLOUDY    53  43  68 SW5       29.88S
HAILEY         MOCLDY    55  34  44 NW10      29.89S
STANLEY          N/A     43  29  57 CALM      29.92F
SALMON         PTCLDY    52  36  54 CALM      29.77R
CHALLIS        PTCLDY    53  31  42 CALM      29.83R
$$

IDZ002-004-006-007-026-030800-
NORTHERN IDAHO


CITY           SKY/WX    TMP DP  RH WIND       PRES   REMARKS
LEWISTON       CLOUDY    61  47  59 N3        29.85F
LOWELL           N/A     57  54  89 CALM      29.91S
COEUR D`ALENE  CLEAR     54  45  71 S7        29.87R
MULLAN PASS    CLOUDY    40  37  89 S7        29.95R
$$


USA.gov is the U.S. government's official web portal to all federal, state and local government web resources and services.